Location: Waco, TX
(31.5480°N, 97.1670°W)
Time: 08:55:28
(UTC-05:00)

ISS - Pass Details

Date: 11 October 2019
Orbit: 411 x 421 km, 51.6° (Epoch: 18 October)

Event Time Altitude Azimuth Distance (km) Brightness Sun altitude
Rises 19:42:51 0° 312° (NW) 2,340 0.8 -9.6°
Reaches altitude 10° 19:44:57 10° 310° (NW) 1,475 -0.2 -10.1°
Maximum altitude 19:48:14 69° 227° (SW) 440 -3.5 -10.8°
Drops below altitude 10° 19:51:31 10° 143° (SE) 1,467 -1.3 -11.5°
Enters shadow 19:52:11 - 142° (SE) 1,741 -1.0 -11.6°
Sets 19:53:36 0° 141° (SE) 2,325 - -11.9°
